GLO1419 SBFZ-SBFI

Flight info

Callsign GLO1419
Flight time 4h 14m
Altitude FL400
Route OMNI/13 DOTKU UZ654 BIXAN UZ65 ILMIS
Aircraft B738/M-S/N

Departure

Time 2026-04-29 21:39
Airport Pinto Martins International Airport (SBFZ)

Arrival

Time 2026-04-30 01:53
Airport Cataratas International Airport (SBFI)
Time Latitude Longitude Altitude Speed Heading
2026-04-29 21:32 -3.77685 -38.54034 90 ft 0 kts 195°
2026-04-29 21:34 -3.77684 -38.54034 90 ft 0 kts 195°
2026-04-29 21:34 -3.77674 -38.54031 90 ft 2 kts 195°
2026-04-29 21:34 -3.77656 -38.54027 90 ft 3 kts 195°
2026-04-29 21:35 -3.77637 -38.54021 90 ft 3 kts 195°
2026-04-29 21:35 -3.77617 -38.54016 90 ft 3 kts 195°
2026-04-29 21:35 -3.77597 -38.54011 90 ft 3 kts 195°
2026-04-29 21:35 -3.77586 -38.54008 90 ft 0 kts 195°
2026-04-29 21:36 -3.77595 -38.54016 90 ft 4 kts 234°
2026-04-29 21:36 -3.77590 -38.54053 90 ft 8 kts 287°
2026-04-29 21:36 -3.77569 -38.54120 90 ft 12 kts 287°
2026-04-29 21:36 -3.77545 -38.54212 90 ft 13 kts 284°
2026-04-29 21:37 -3.77519 -38.54314 90 ft 15 kts 284°
2026-04-29 21:37 -3.77490 -38.54377 90 ft 6 kts 328°
2026-04-29 21:37 -3.77444 -38.54399 90 ft 8 kts 357°
2026-04-29 21:37 -3.77396 -38.54380 90 ft 8 kts 41°
2026-04-29 21:38 -3.77354 -38.54336 90 ft 7 kts 73°
2026-04-29 21:38 -3.77363 -38.54282 90 ft 20 kts 105°
2026-04-29 21:38 -3.77465 -38.53893 90 ft 94 kts 105°
2026-04-29 21:38 -3.77688 -38.53066 90 ft 153 kts 105°
2026-04-29 21:39 -3.78004 -38.51896 267 ft 184 kts 105°
2026-04-29 21:39 -3.78352 -38.50592 964 ft 206 kts 105°
2026-04-29 21:39 -3.78846 -38.49129 1564 ft 240 kts 116°
2026-04-29 21:39 -3.80025 -38.47906 2326 ft 253 kts 150°
2026-04-29 21:40 -3.81728 -38.47546 3332 ft 255 kts 183°
2026-04-29 21:40 -3.83375 -38.48163 4274 ft 259 kts 216°
2026-04-29 21:40 -3.84544 -38.49530 5269 ft 261 kts 237°
2026-04-29 21:40 -3.85484 -38.51105 6203 ft 266 kts 239°
2026-04-29 21:41 -3.85995 -38.51926 6687 ft 268 kts 238°
2026-04-29 21:41 -3.87540 -38.54240 8042 ft 274 kts 235°
2026-04-29 21:41 -3.88646 -38.55778 8924 ft 278 kts 233°
2026-04-29 21:41 -3.89827 -38.57345 9806 ft 282 kts 232°
2026-04-29 21:42 -3.91045 -38.58885 10658 ft 285 kts 231°
2026-04-29 21:42 -3.92322 -38.60422 11497 ft 289 kts 230°
2026-04-29 21:42 -3.93651 -38.61954 12320 ft 293 kts 229°
2026-04-29 21:42 -3.95018 -38.63474 13123 ft 296 kts 227°
2026-04-29 21:43 -3.96429 -38.64996 13909 ft 300 kts 227°
2026-04-29 21:43 -3.97862 -38.66507 14674 ft 304 kts 226°
2026-04-29 21:43 -3.99219 -38.67908 15363 ft 307 kts 225°
2026-04-29 21:43 -4.00532 -38.69248 16011 ft 310 kts 225°
2026-04-29 21:44 -4.01708 -38.70443 16571 ft 313 kts 225°
2026-04-29 21:44 -4.03323 -38.72052 17308 ft 316 kts 225°
2026-04-29 21:44 -4.04903 -38.73605 17788 ft 328 kts 221°
2026-04-29 21:44 -4.06521 -38.75159 18122 ft 339 kts 221°
2026-04-29 21:45 -4.08038 -38.76603 18754 ft 339 kts 220°
2026-04-29 21:45 -4.09602 -38.78087 19249 ft 344 kts 220°
2026-04-29 21:45 -4.11354 -38.79722 19830 ft 347 kts 219°
2026-04-29 21:45 -4.13090 -38.81317 20398 ft 349 kts 219°
2026-04-29 21:46 -4.14853 -38.82897 20950 ft 352 kts 218°
2026-04-29 21:46 -4.16691 -38.84529 21512 ft 354 kts 217°
2026-04-29 21:46 -4.18460 -38.86098 22035 ft 356 kts 217°
2026-04-29 21:46 -4.20339 -38.87766 22579 ft 358 kts 217°
2026-04-29 21:47 -4.22205 -38.89423 23097 ft 360 kts 217°
2026-04-29 21:47 -4.23828 -38.90864 23545 ft 362 kts 217°
2026-04-29 21:47 -4.25828 -38.92643 24231 ft 356 kts 217°
2026-04-29 21:47 -4.27656 -38.94274 25038 ft 351 kts 217°
2026-04-29 21:48 -4.29489 -38.95920 25235 ft 362 kts 217°
2026-04-29 21:48 -4.31404 -38.97627 25401 ft 374 kts 217°
2026-04-29 21:48 -4.33364 -38.99389 25559 ft 386 kts 217°
2026-04-29 21:48 -4.35390 -39.01210 25835 ft 400 kts 218°
2026-04-29 21:49 -4.37457 -39.03073 26569 ft 399 kts 217°
2026-04-29 21:49 -4.39633 -39.04730 27293 ft 395 kts 208°
2026-04-29 21:49 -4.42044 -39.06079 27888 ft 395 kts 202°
2026-04-29 21:49 -4.44513 -39.07259 28465 ft 396 kts 201°
2026-04-29 21:50 -4.47029 -39.08379 29016 ft 398 kts 200°
2026-04-29 21:50 -4.49575 -39.09488 29538 ft 400 kts 200°
2026-04-29 21:50 -4.52129 -39.10608 30042 ft 402 kts 200°
2026-04-29 21:50 -4.54315 -39.11564 30442 ft 404 kts 200°
2026-04-29 21:51 -4.57269 -39.12855 30818 ft 407 kts 201°
2026-04-29 21:51 -4.59852 -39.14022 31149 ft 410 kts 202°
2026-04-29 21:51 -4.65050 -39.16403 31807 ft 413 kts 202°
2026-04-29 21:52 -4.67656 -39.17597 32107 ft 415 kts 202°
2026-04-29 21:52 -4.70287 -39.18801 32412 ft 416 kts 202°
2026-04-29 21:52 -4.72904 -39.19999 32701 ft 418 kts 202°
2026-04-29 21:52 -4.75553 -39.21212 32987 ft 419 kts 202°
2026-04-29 21:53 -4.78211 -39.22429 33277 ft 420 kts 203°
2026-04-29 21:53 -4.80850 -39.23637 33658 ft 419 kts 203°
2026-04-29 21:53 -4.83510 -39.24855 33854 ft 422 kts 203°
2026-04-29 21:53 -4.86186 -39.26081 34130 ft 423 kts 203°
2026-04-29 21:54 -4.88859 -39.27304 34378 ft 425 kts 203°
2026-04-29 21:54 -4.91556 -39.28540 34627 ft 427 kts 203°
2026-04-29 21:54 -4.94218 -39.29758 34853 ft 428 kts 203°
2026-04-29 21:54 -4.96963 -39.31015 35087 ft 430 kts 203°
2026-04-29 21:55 -4.99676 -39.32257 35312 ft 431 kts 203°
2026-04-29 21:55 -5.02399 -39.33505 35537 ft 433 kts 203°
2026-04-29 21:55 -5.05136 -39.34758 35753 ft 434 kts 203°
2026-04-29 21:55 -5.07880 -39.36021 36020 ft 434 kts 204°
2026-04-29 21:56 -5.09961 -39.36988 36154 ft 436 kts 204°
2026-04-29 21:56 -5.12313 -39.38072 36338 ft 436 kts 204°
2026-04-29 21:56 -5.15060 -39.39331 36515 ft 438 kts 204°
2026-04-29 21:56 -5.17850 -39.40609 36737 ft 440 kts 204°
2026-04-29 21:57 -5.20611 -39.41876 36932 ft 441 kts 204°
2026-04-29 21:57 -5.23421 -39.43182 37097 ft 443 kts 204°
2026-04-29 21:57 -5.26212 -39.44461 37323 ft 444 kts 204°
2026-04-29 21:57 -5.29024 -39.45749 37514 ft 446 kts 204°
2026-04-29 21:58 -5.31832 -39.47051 37734 ft 446 kts 204°
2026-04-29 21:58 -5.34647 -39.48348 37969 ft 446 kts 203°
2026-04-29 21:58 -5.37455 -39.49633 38201 ft 446 kts 204°
2026-04-29 21:58 -5.40263 -39.50926 38481 ft 445 kts 204°
2026-04-29 21:59 -5.43061 -39.52224 38721 ft 444 kts 204°
2026-04-29 21:59 -5.45871 -39.53511 38960 ft 443 kts 204°
2026-04-29 21:59 -5.48664 -39.54793 39179 ft 443 kts 204°
2026-04-29 21:59 -5.51453 -39.56092 39407 ft 442 kts 204°
2026-04-29 22:00 -5.54244 -39.57374 39628 ft 441 kts 204°
2026-04-29 22:00 -5.57041 -39.58654 39746 ft 443 kts 204°
2026-04-29 22:00 -5.62646 -39.61248 39814 ft 450 kts 204°
2026-04-29 22:01 -5.68376 -39.63881 39871 ft 455 kts 204°
2026-04-29 22:01 -5.74147 -39.66540 39879 ft 459 kts 204°
2026-04-29 22:02 -5.79942 -39.69222 39879 ft 459 kts 204°
2026-04-29 22:02 -5.85721 -39.71883 39886 ft 458 kts 204°
2026-04-29 22:03 -5.91065 -39.74346 39888 ft 459 kts 204°
2026-04-29 22:03 -5.95703 -39.76490 39889 ft 460 kts 204°
2026-04-29 22:04 -6.01582 -39.79224 39888 ft 461 kts 204°
2026-04-29 22:04 -6.07493 -39.81986 39888 ft 461 kts 204°
2026-04-29 22:05 -6.13278 -39.84702 39894 ft 461 kts 203°
2026-04-29 22:06 -6.21655 -39.88541 39894 ft 462 kts 203°
2026-04-29 22:06 -6.27681 -39.91302 39918 ft 462 kts 203°
2026-04-29 22:07 -6.33113 -39.93792 39986 ft 463 kts 203°
2026-04-29 22:07 -6.38882 -39.96435 39989 ft 459 kts 203°
2026-04-29 22:08 -6.43748 -39.98665 39990 ft 459 kts 203°
2026-04-29 22:08 -6.49310 -40.01212 39990 ft 460 kts 203°
2026-04-29 22:09 -6.55104 -40.03870 39990 ft 460 kts 203°
2026-04-29 22:09 -6.59996 -40.06119 39990 ft 460 kts 204°
2026-04-29 22:10 -6.66198 -40.08990 39979 ft 459 kts 204°
2026-04-29 22:10 -6.71996 -40.11684 39979 ft 459 kts 204°
2026-04-29 22:11 -6.77789 -40.14378 39979 ft 460 kts 204°
2026-04-29 22:11 -6.83583 -40.17068 39979 ft 460 kts 203°
2026-04-29 22:12 -6.89400 -40.19731 39998 ft 460 kts 204°
2026-04-29 22:12 -6.95218 -40.22394 40003 ft 460 kts 204°
2026-04-29 22:13 -7.00741 -40.24922 40003 ft 460 kts 204°
2026-04-29 22:13 -7.06106 -40.27378 40003 ft 460 kts 204°
2026-04-29 22:14 -7.11560 -40.29875 40003 ft 461 kts 204°
2026-04-29 22:14 -7.17360 -40.32561 39999 ft 461 kts 204°
2026-04-29 22:15 -7.23184 -40.35256 39999 ft 461 kts 204°
2026-04-29 22:15 -7.29006 -40.37935 39999 ft 461 kts 204°
2026-04-29 22:16 -7.34836 -40.40626 39999 ft 461 kts 204°
2026-04-29 22:16 -7.40639 -40.43316 39999 ft 461 kts 204°
2026-04-29 22:17 -7.46466 -40.46015 40019 ft 459 kts 204°
2026-04-29 22:17 -7.52269 -40.48692 40020 ft 460 kts 204°
2026-04-29 22:18 -7.58068 -40.51363 40020 ft 460 kts 204°
2026-04-29 22:18 -7.63859 -40.54061 40020 ft 460 kts 204°
2026-04-29 22:19 -7.69680 -40.56754 40027 ft 461 kts 204°
2026-04-29 22:19 -7.75419 -40.59400 40029 ft 461 kts 204°
2026-04-29 22:20 -7.80528 -40.61776 40029 ft 461 kts 204°
2026-04-29 22:20 -7.86332 -40.64467 40029 ft 462 kts 204°
2026-04-29 22:21 -7.92160 -40.67159 40028 ft 462 kts 204°
2026-04-29 22:21 -7.97919 -40.69830 39999 ft 462 kts 202°
2026-04-29 22:22 -8.03816 -40.72576 39998 ft 464 kts 202°
2026-04-29 22:22 -8.09521 -40.75216 39998 ft 464 kts 203°
2026-04-29 22:23 -8.14479 -40.77513 39998 ft 464 kts 202°
2026-04-29 22:23 -8.19879 -40.80020 39999 ft 464 kts 203°
2026-04-29 22:24 -8.25279 -40.82535 40001 ft 463 kts 203°
2026-04-29 22:24 -8.30407 -40.84902 40000 ft 464 kts 203°
2026-04-29 22:25 -8.36385 -40.87680 39999 ft 464 kts 202°
2026-04-29 22:25 -8.42235 -40.90409 39999 ft 465 kts 202°
2026-04-29 22:26 -8.48092 -40.93137 40000 ft 463 kts 202°
2026-04-29 22:26 -8.53901 -40.95822 40000 ft 460 kts 202°
2026-04-29 22:27 -8.59719 -40.98534 40000 ft 462 kts 202°
2026-04-29 22:27 -8.65544 -41.01253 39999 ft 462 kts 202°
2026-04-29 22:28 -8.71366 -41.03963 39999 ft 462 kts 203°
2026-04-29 22:28 -8.77205 -41.06670 39994 ft 461 kts 203°
2026-04-29 22:29 -8.82966 -41.09355 39994 ft 460 kts 202°
2026-04-29 22:29 -8.88804 -41.12086 39994 ft 461 kts 202°
2026-04-29 22:30 -8.94440 -41.14710 39994 ft 461 kts 203°
2026-04-29 22:30 -8.99942 -41.17266 39998 ft 462 kts 203°
2026-04-29 22:31 -9.05595 -41.19909 39998 ft 463 kts 203°
2026-04-29 22:31 -9.11464 -41.22656 39997 ft 463 kts 203°
2026-04-29 22:32 -9.16859 -41.25169 39998 ft 463 kts 203°
2026-04-29 22:32 -9.22557 -41.27823 39997 ft 463 kts 203°
2026-04-29 22:33 -9.28396 -41.30555 39997 ft 463 kts 203°
2026-04-29 22:33 -9.34212 -41.33281 39997 ft 463 kts 203°
2026-04-29 22:34 -9.40073 -41.36011 39997 ft 465 kts 203°
2026-04-29 22:34 -9.45937 -41.38759 39998 ft 465 kts 203°
2026-04-29 22:35 -9.51778 -41.41499 40003 ft 464 kts 203°
2026-04-29 22:35 -9.57613 -41.44244 40007 ft 463 kts 203°
2026-04-29 22:36 -9.63445 -41.46990 40007 ft 464 kts 203°
2026-04-29 22:36 -9.69298 -41.49747 40006 ft 464 kts 203°
2026-04-29 22:37 -9.75148 -41.52478 40007 ft 464 kts 203°
2026-04-29 22:37 -9.80999 -41.55244 40001 ft 464 kts 204°
2026-04-29 22:38 -9.86819 -41.58019 40001 ft 463 kts 203°
2026-04-29 22:38 -9.92685 -41.60743 40001 ft 464 kts 203°
2026-04-29 22:39 -9.98534 -41.63467 40001 ft 464 kts 203°
2026-04-29 22:39 -10.04389 -41.66196 40001 ft 464 kts 204°
2026-04-29 22:40 -10.10237 -41.68921 40016 ft 463 kts 204°
2026-04-29 22:40 -10.16082 -41.71666 40016 ft 464 kts 204°
2026-04-29 22:41 -10.21927 -41.74409 40016 ft 464 kts 204°
2026-04-29 22:41 -10.27764 -41.77183 40016 ft 465 kts 204°
2026-04-29 22:42 -10.33585 -41.79977 40011 ft 463 kts 204°
2026-04-29 22:42 -10.39318 -41.82656 40011 ft 461 kts 204°
2026-04-29 22:43 -10.44343 -41.85003 40011 ft 463 kts 204°
2026-04-29 22:43 -10.50524 -41.87891 40010 ft 463 kts 204°
2026-04-29 22:44 -10.56366 -41.90629 40011 ft 463 kts 205°
2026-04-29 22:44 -10.62200 -41.93388 40000 ft 464 kts 205°
2026-04-29 22:45 -10.68055 -41.96173 40000 ft 465 kts 205°
2026-04-29 22:45 -10.73871 -41.98962 39999 ft 464 kts 205°
2026-04-29 22:46 -10.79715 -42.01697 39999 ft 464 kts 205°
2026-04-29 22:46 -10.85580 -42.04447 40011 ft 465 kts 205°
2026-04-29 22:47 -10.91437 -42.07222 40014 ft 466 kts 205°
2026-04-29 22:47 -10.97277 -42.09998 40014 ft 466 kts 205°
2026-04-29 22:48 -11.03148 -42.12820 40014 ft 467 kts 205°
2026-04-29 22:48 -11.09037 -42.15581 40014 ft 468 kts 205°
2026-04-29 22:49 -11.14931 -42.18345 40023 ft 466 kts 205°
2026-04-29 22:49 -11.20815 -42.21108 40023 ft 467 kts 205°
2026-04-29 22:50 -11.26709 -42.23877 40023 ft 468 kts 205°
2026-04-29 22:50 -11.32601 -42.26665 40023 ft 468 kts 206°
2026-04-29 22:51 -11.38488 -42.29448 40041 ft 466 kts 205°
2026-04-29 22:51 -11.47244 -42.33610 40047 ft 465 kts 206°
2026-04-29 22:52 -11.53029 -42.36355 40047 ft 466 kts 205°
2026-04-29 22:52 -11.58282 -42.38857 40047 ft 466 kts 205°
2026-04-29 22:53 -11.64150 -42.41649 40056 ft 466 kts 205°
2026-04-29 22:53 -11.70018 -42.44453 40086 ft 467 kts 205°
2026-04-29 22:54 -11.75898 -42.47265 40088 ft 469 kts 205°
2026-04-29 22:54 -11.81800 -42.50092 40087 ft 468 kts 205°
2026-04-29 22:55 -11.87682 -42.52876 40088 ft 467 kts 205°
2026-04-29 22:55 -11.93549 -42.55668 40077 ft 465 kts 205°
2026-04-29 22:56 -11.99350 -42.58489 40074 ft 463 kts 206°
2026-04-29 22:56 -12.05183 -42.61298 40074 ft 465 kts 205°
2026-04-29 22:57 -12.11050 -42.64082 40073 ft 465 kts 205°
2026-04-29 22:57 -12.16897 -42.66860 40073 ft 465 kts 205°
2026-04-29 22:58 -12.22770 -42.69652 40013 ft 465 kts 205°
2026-04-29 22:58 -12.28615 -42.72433 40012 ft 466 kts 205°
2026-04-29 22:59 -12.34493 -42.75232 40012 ft 466 kts 205°
2026-04-29 22:59 -12.40356 -42.78025 40012 ft 466 kts 205°
2026-04-29 23:00 -12.45814 -42.80630 39991 ft 467 kts 205°
2026-04-29 23:00 -12.51669 -42.83446 39981 ft 466 kts 205°
2026-04-29 23:01 -12.57522 -42.86303 39981 ft 468 kts 205°
2026-04-29 23:01 -12.63407 -42.89113 39981 ft 468 kts 205°
2026-04-29 23:02 -12.69284 -42.91924 39991 ft 466 kts 205°
2026-04-29 23:02 -12.75151 -42.94731 39994 ft 468 kts 205°
2026-04-29 23:03 -12.81064 -42.97564 39994 ft 470 kts 205°
2026-04-29 23:03 -12.86962 -43.00391 39994 ft 469 kts 205°
2026-04-29 23:04 -12.92863 -43.03221 39994 ft 469 kts 205°
2026-04-29 23:04 -12.98767 -43.06055 39983 ft 467 kts 205°
2026-04-29 23:05 -13.04625 -43.08869 39983 ft 467 kts 205°
2026-04-29 23:05 -13.10515 -43.11700 39983 ft 469 kts 205°
2026-04-29 23:06 -13.16406 -43.14534 39983 ft 468 kts 205°
2026-04-29 23:06 -13.22277 -43.17361 39973 ft 465 kts 205°
2026-04-29 23:07 -13.28074 -43.20155 39972 ft 461 kts 205°
2026-04-29 23:07 -13.33876 -43.22952 39972 ft 463 kts 205°
2026-04-29 23:08 -13.39716 -43.25770 39972 ft 463 kts 205°
2026-04-29 23:08 -13.45526 -43.28576 39971 ft 464 kts 205°
2026-04-29 23:09 -13.51345 -43.31388 39979 ft 462 kts 205°
2026-04-29 23:09 -13.57120 -43.34182 39979 ft 462 kts 205°
2026-04-29 23:10 -13.62957 -43.37007 39979 ft 463 kts 205°
2026-04-29 23:10 -13.68498 -43.39691 39979 ft 462 kts 205°
2026-04-29 23:11 -13.74569 -43.42633 39983 ft 462 kts 205°
2026-04-29 23:11 -13.80362 -43.45443 39985 ft 461 kts 205°
2026-04-29 23:12 -13.85541 -43.47957 39985 ft 462 kts 205°
2026-04-29 23:12 -13.91442 -43.50817 39985 ft 462 kts 204°
2026-04-29 23:13 -13.97255 -43.53634 39985 ft 462 kts 205°
2026-04-29 23:13 -14.03045 -43.56440 39992 ft 462 kts 205°
2026-04-29 23:14 -14.08359 -43.59022 39991 ft 463 kts 205°
2026-04-29 23:14 -14.14675 -43.62079 39992 ft 463 kts 205°
2026-04-29 23:15 -14.20475 -43.64909 39992 ft 464 kts 205°
2026-04-29 23:15 -14.26313 -43.67759 39994 ft 464 kts 205°
2026-04-29 23:16 -14.32101 -43.70587 40001 ft 461 kts 205°
2026-04-29 23:16 -14.37867 -43.73409 40001 ft 462 kts 205°
2026-04-29 23:17 -14.43668 -43.76251 40001 ft 463 kts 205°
2026-04-29 23:17 -14.49489 -43.79104 40001 ft 463 kts 205°
2026-04-29 23:18 -14.55282 -43.81932 40012 ft 461 kts 205°
2026-04-29 23:18 -14.61065 -43.84752 40016 ft 459 kts 205°
2026-04-29 23:19 -14.66827 -43.87564 40016 ft 461 kts 205°
2026-04-29 23:19 -14.72615 -43.90395 40016 ft 461 kts 205°
2026-04-29 23:20 -14.77212 -43.92646 40016 ft 461 kts 205°
2026-04-29 23:20 -14.82738 -43.95346 40020 ft 462 kts 205°
2026-04-29 23:21 -14.88561 -43.98185 40021 ft 461 kts 205°
2026-04-29 23:21 -14.94334 -44.01005 40021 ft 462 kts 205°
2026-04-29 23:22 -15.00149 -44.03840 40022 ft 462 kts 205°
2026-04-29 23:22 -15.05941 -44.06667 40022 ft 462 kts 205°
2026-04-29 23:23 -15.11747 -44.09500 40022 ft 461 kts 204°
2026-04-29 23:23 -15.17734 -44.11863 40023 ft 463 kts 199°
2026-04-29 23:24 -15.23789 -44.14097 40023 ft 464 kts 199°
2026-04-29 23:24 -15.29867 -44.16338 40024 ft 464 kts 199°
2026-04-29 23:25 -15.35937 -44.18549 40036 ft 464 kts 199°
2026-04-29 23:25 -15.42011 -44.20745 40037 ft 465 kts 198°
2026-04-29 23:26 -15.47965 -44.22903 40036 ft 465 kts 199°
2026-04-29 23:26 -15.53675 -44.25021 40036 ft 465 kts 199°
2026-04-29 23:27 -15.59740 -44.27272 40032 ft 465 kts 199°
2026-04-29 23:27 -15.65362 -44.29361 40030 ft 463 kts 199°
2026-04-29 23:28 -15.71468 -44.31632 40030 ft 464 kts 199°
2026-04-29 23:28 -15.77533 -44.33890 40030 ft 465 kts 199°
2026-04-29 23:29 -15.83237 -44.36014 40054 ft 464 kts 199°
2026-04-29 23:29 -15.89297 -44.38247 40055 ft 465 kts 199°
2026-04-29 23:30 -15.95386 -44.40487 40055 ft 465 kts 199°
2026-04-29 23:30 -16.01461 -44.42736 40054 ft 465 kts 199°
2026-04-29 23:31 -16.07579 -44.45012 40056 ft 465 kts 199°
2026-04-29 23:31 -16.13622 -44.47244 40062 ft 467 kts 200°
2026-04-29 23:32 -16.19645 -44.49463 40062 ft 467 kts 199°
2026-04-29 23:32 -16.25854 -44.51735 40062 ft 468 kts 199°
2026-04-29 23:33 -16.32047 -44.53963 40062 ft 469 kts 200°
2026-04-29 23:33 -16.37858 -44.56139 40071 ft 467 kts 199°
2026-04-29 23:34 -16.44150 -44.58481 40075 ft 466 kts 199°
2026-04-29 23:34 -16.50255 -44.60751 40075 ft 467 kts 200°
2026-04-29 23:35 -16.56384 -44.63015 40075 ft 467 kts 200°
2026-04-29 23:35 -16.62319 -44.65223 40077 ft 467 kts 199°
2026-04-29 23:36 -16.68308 -44.67454 40065 ft 472 kts 199°
2026-04-29 23:36 -16.74577 -44.69793 40064 ft 471 kts 199°
2026-04-29 23:37 -16.80802 -44.72114 40064 ft 471 kts 199°
2026-04-29 23:37 -16.86872 -44.74656 40065 ft 472 kts 205°
2026-04-29 23:38 -16.92162 -44.77322 40069 ft 476 kts 205°
2026-04-29 23:38 -16.98130 -44.80373 40069 ft 477 kts 205°
2026-04-29 23:39 -17.04019 -44.83440 40069 ft 476 kts 205°
2026-04-29 23:39 -17.09949 -44.86524 40069 ft 476 kts 206°
2026-04-29 23:40 -17.15810 -44.89584 40073 ft 477 kts 206°
2026-04-29 23:40 -17.21736 -44.92689 40080 ft 483 kts 206°
2026-04-29 23:41 -17.27763 -44.95856 40081 ft 484 kts 206°
2026-04-29 23:41 -17.33783 -44.99020 40080 ft 484 kts 206°
2026-04-29 23:42 -17.39771 -45.02181 40080 ft 483 kts 206°
2026-04-29 23:42 -17.45731 -45.05419 40077 ft 483 kts 208°
2026-04-29 23:43 -17.51648 -45.08705 40077 ft 483 kts 207°
2026-04-29 23:43 -17.57548 -45.11961 40077 ft 484 kts 208°
2026-04-29 23:44 -17.63439 -45.15215 40077 ft 483 kts 208°
2026-04-29 23:44 -17.68747 -45.18117 40088 ft 485 kts 207°
2026-04-29 23:45 -17.74736 -45.21234 40093 ft 488 kts 206°
2026-04-29 23:45 -17.80834 -45.24396 40093 ft 488 kts 206°
2026-04-29 23:46 -17.86918 -45.27555 40093 ft 488 kts 206°
2026-04-29 23:46 -17.92538 -45.31455 40095 ft 487 kts 220°
2026-04-29 23:47 -17.97705 -45.36039 40082 ft 487 kts 221°
2026-04-29 23:47 -18.02862 -45.40646 40081 ft 485 kts 221°
2026-04-29 23:48 -18.07996 -45.45238 40081 ft 486 kts 221°
2026-04-29 23:48 -18.13110 -45.49822 40080 ft 486 kts 221°
2026-04-29 23:49 -18.18314 -45.54360 40080 ft 486 kts 220°
2026-04-29 23:49 -18.23496 -45.58821 40088 ft 490 kts 220°
2026-04-29 23:50 -18.28814 -45.63403 40088 ft 494 kts 219°
2026-04-29 23:51 -18.36737 -45.70224 40093 ft 492 kts 220°
2026-04-29 23:51 -18.42034 -45.74806 40095 ft 492 kts 220°
2026-04-29 23:52 -18.47313 -45.79340 40096 ft 492 kts 220°
2026-04-29 23:52 -18.52634 -45.83901 40095 ft 493 kts 219°
2026-04-29 23:53 -18.57934 -45.88444 40095 ft 493 kts 220°
2026-04-29 23:53 -18.62753 -45.92623 40114 ft 492 kts 221°
2026-04-29 23:54 -18.67950 -45.97146 40116 ft 492 kts 221°
2026-04-29 23:54 -18.73225 -46.01700 40116 ft 493 kts 221°
2026-04-29 23:55 -18.78527 -46.06304 40115 ft 493 kts 220°
2026-04-29 23:55 -18.83501 -46.10628 40117 ft 489 kts 222°
2026-04-29 23:56 -18.88701 -46.15116 40117 ft 484 kts 222°
2026-04-29 23:56 -18.93915 -46.19646 40117 ft 486 kts 221°
2026-04-29 23:57 -18.99127 -46.24196 40117 ft 486 kts 222°
2026-04-29 23:57 -19.03989 -46.28390 40122 ft 485 kts 219°
2026-04-29 23:58 -19.08766 -46.32573 40135 ft 492 kts 219°
2026-04-29 23:58 -19.14169 -46.37267 40138 ft 498 kts 220°
2026-04-29 23:59 -19.19458 -46.41864 40138 ft 498 kts 219°
2026-04-29 23:59 -19.24816 -46.46552 40138 ft 498 kts 219°
2026-04-30 00:00 -19.30135 -46.51209 40139 ft 498 kts 221°
2026-04-30 00:00 -19.35479 -46.55825 40139 ft 497 kts 221°
2026-04-30 00:01 -19.40817 -46.60443 40140 ft 498 kts 221°
2026-04-30 00:01 -19.46145 -46.65059 40139 ft 498 kts 221°
2026-04-30 00:02 -19.51409 -46.69684 40131 ft 478 kts 223°
2026-04-30 00:02 -19.53943 -46.71889 40128 ft 465 kts 224°
2026-04-30 00:02 -19.56402 -46.74071 40128 ft 459 kts 224°
2026-04-30 00:03 -19.61269 -46.78318 40129 ft 458 kts 224°
2026-04-30 00:03 -19.66014 -46.82493 40128 ft 460 kts 224°
2026-04-30 00:04 -19.70841 -46.86738 40129 ft 460 kts 224°
2026-04-30 00:04 -19.75731 -46.91041 40146 ft 459 kts 224°
2026-04-30 00:05 -19.80627 -46.95335 40147 ft 460 kts 224°
2026-04-30 00:05 -19.85579 -46.99697 40147 ft 460 kts 224°
2026-04-30 00:06 -19.90495 -47.04044 40147 ft 461 kts 224°
2026-04-30 00:06 -19.95392 -47.08366 40143 ft 458 kts 224°
2026-04-30 00:07 -20.00248 -47.12643 40143 ft 458 kts 224°
2026-04-30 00:07 -20.04971 -47.16833 40143 ft 461 kts 224°
2026-04-30 00:08 -20.09930 -47.21206 40143 ft 460 kts 224°
2026-04-30 00:08 -20.14707 -47.25437 40143 ft 459 kts 224°
2026-04-30 00:09 -20.19717 -47.29886 40111 ft 459 kts 224°
2026-04-30 00:09 -20.24615 -47.34226 40110 ft 459 kts 224°
2026-04-30 00:10 -20.29529 -47.38588 40110 ft 461 kts 224°
2026-04-30 00:10 -20.34453 -47.42964 40110 ft 462 kts 224°
2026-04-30 00:11 -20.39358 -47.47330 40111 ft 460 kts 224°
2026-04-30 00:11 -20.44264 -47.51699 40112 ft 460 kts 224°
2026-04-30 00:12 -20.49151 -47.56063 40112 ft 463 kts 224°
2026-04-30 00:12 -20.54062 -47.60445 40111 ft 460 kts 224°
2026-04-30 00:13 -20.58919 -47.64796 40112 ft 461 kts 224°
2026-04-30 00:13 -20.63122 -47.68567 40087 ft 462 kts 225°
2026-04-30 00:14 -20.67716 -47.72694 40084 ft 465 kts 224°
2026-04-30 00:14 -20.72496 -47.76978 40084 ft 466 kts 224°
2026-04-30 00:15 -20.77475 -47.81444 40084 ft 467 kts 224°
2026-04-30 00:15 -20.82232 -47.85697 40087 ft 465 kts 224°
2026-04-30 00:16 -20.87146 -47.90101 40086 ft 461 kts 225°
2026-04-30 00:16 -20.92051 -47.94505 40086 ft 463 kts 225°
2026-04-30 00:17 -20.96924 -47.98890 40086 ft 463 kts 225°
2026-04-30 00:17 -21.01850 -48.03356 40086 ft 464 kts 225°
2026-04-30 00:18 -21.06154 -48.07235 40074 ft 459 kts 225°
2026-04-30 00:18 -21.11076 -48.11682 40066 ft 455 kts 225°
2026-04-30 00:19 -21.15773 -48.15930 40066 ft 459 kts 225°
2026-04-30 00:19 -21.20491 -48.20207 40066 ft 458 kts 225°
2026-04-30 00:20 -21.25362 -48.24626 40066 ft 458 kts 224°
2026-04-30 00:20 -21.30189 -48.28995 40064 ft 461 kts 225°
2026-04-30 00:21 -21.35094 -48.33405 40063 ft 462 kts 226°
2026-04-30 00:21 -21.40041 -48.37890 40064 ft 462 kts 225°
2026-04-30 00:22 -21.44883 -48.42303 40064 ft 462 kts 225°
2026-04-30 00:22 -21.49775 -48.46708 40064 ft 464 kts 225°
2026-04-30 00:23 -21.54711 -48.51191 40064 ft 464 kts 225°
2026-04-30 00:23 -21.59660 -48.55596 40064 ft 464 kts 225°
2026-04-30 00:24 -21.64441 -48.59875 40064 ft 465 kts 225°
2026-04-30 00:24 -21.68848 -48.63825 40064 ft 466 kts 225°
2026-04-30 00:25 -21.73505 -48.68076 40052 ft 465 kts 227°
2026-04-30 00:25 -21.78363 -48.72484 40049 ft 461 kts 226°
2026-04-30 00:26 -21.83201 -48.76923 40049 ft 464 kts 226°
2026-04-30 00:26 -21.88105 -48.81403 40049 ft 463 kts 227°
2026-04-30 00:27 -21.92954 -48.85816 40049 ft 463 kts 226°
2026-04-30 00:27 -21.97808 -48.90284 40042 ft 462 kts 226°
2026-04-30 00:28 -22.02312 -48.94395 40041 ft 464 kts 227°
2026-04-30 00:28 -22.07284 -48.98949 40042 ft 466 kts 226°
2026-04-30 00:29 -22.12114 -49.03400 40041 ft 466 kts 227°
2026-04-30 00:29 -22.16676 -49.07577 40045 ft 458 kts 227°
2026-04-30 00:30 -22.21310 -49.11838 40049 ft 446 kts 226°
2026-04-30 00:30 -22.26044 -49.16202 40049 ft 447 kts 227°
2026-04-30 00:31 -22.30672 -49.20474 40049 ft 448 kts 227°
2026-04-30 00:31 -22.35509 -49.24957 40049 ft 448 kts 227°
2026-04-30 00:32 -22.37203 -49.26527 40050 ft 448 kts 227°
2026-04-30 00:32 -22.41807 -49.30805 40046 ft 447 kts 227°
2026-04-30 00:33 -22.45799 -49.34511 40035 ft 439 kts 227°
2026-04-30 00:33 -22.49908 -49.38698 40048 ft 432 kts 237°
2026-04-30 00:34 -22.53104 -49.44155 40044 ft 428 kts 245°
2026-04-30 00:34 -22.55942 -49.49782 40044 ft 426 kts 246°
2026-04-30 00:35 -22.58668 -49.55238 40036 ft 423 kts 246°
2026-04-30 00:35 -22.61454 -49.60831 40038 ft 418 kts 247°
2026-04-30 00:36 -22.64216 -49.66387 40038 ft 421 kts 247°
2026-04-30 00:36 -22.66929 -49.71960 40038 ft 421 kts 247°
2026-04-30 00:37 -22.69164 -49.76607 40038 ft 421 kts 248°
2026-04-30 00:37 -22.72091 -49.82612 40032 ft 417 kts 247°
2026-04-30 00:38 -22.74387 -49.87269 40035 ft 420 kts 247°
2026-04-30 00:38 -22.77212 -49.93005 40037 ft 420 kts 247°
2026-04-30 00:39 -22.79927 -49.98611 40036 ft 419 kts 247°
2026-04-30 00:39 -22.82635 -50.04174 40036 ft 419 kts 248°
2026-04-30 00:40 -22.85346 -50.09769 40024 ft 421 kts 246°
2026-04-30 00:40 -22.88049 -50.15373 40028 ft 419 kts 248°
2026-04-30 00:41 -22.90757 -50.20957 40029 ft 422 kts 248°
2026-04-30 00:41 -22.93474 -50.26607 40029 ft 424 kts 248°
2026-04-30 00:42 -22.96184 -50.32257 40029 ft 424 kts 248°
2026-04-30 00:42 -22.98892 -50.37927 40029 ft 423 kts 248°
2026-04-30 00:43 -23.01614 -50.43620 40024 ft 429 kts 250°
2026-04-30 00:43 -23.04515 -50.49302 40023 ft 434 kts 246°
2026-04-30 00:44 -23.07586 -50.54932 40023 ft 433 kts 246°
2026-04-30 00:44 -23.10634 -50.60543 40023 ft 434 kts 246°
2026-04-30 00:45 -23.13693 -50.66191 40023 ft 435 kts 246°
2026-04-30 00:45 -23.16770 -50.71846 40022 ft 437 kts 247°
2026-04-30 00:46 -23.19867 -50.77544 40022 ft 438 kts 247°
2026-04-30 00:46 -23.22927 -50.83223 40021 ft 437 kts 247°
2026-04-30 00:47 -23.26009 -50.88930 40021 ft 439 kts 247°
2026-04-30 00:47 -23.29090 -50.94631 40016 ft 441 kts 243°
2026-04-30 00:48 -23.32161 -51.00315 40037 ft 433 kts 246°
2026-04-30 00:48 -23.35202 -51.05947 40038 ft 434 kts 246°
2026-04-30 00:49 -23.38258 -51.11607 40038 ft 435 kts 246°
2026-04-30 00:49 -23.41310 -51.17263 40038 ft 434 kts 246°
2026-04-30 00:50 -23.44361 -51.22916 40052 ft 435 kts 247°
2026-04-30 00:50 -23.47446 -51.28626 40052 ft 443 kts 247°
2026-04-30 00:51 -23.50564 -51.34389 40051 ft 445 kts 246°
2026-04-30 00:51 -23.54120 -51.39969 40051 ft 450 kts 242°
2026-04-30 00:52 -23.57879 -51.45451 40051 ft 452 kts 240°
2026-04-30 00:52 -23.61668 -51.50807 40057 ft 444 kts 240°
2026-04-30 00:53 -23.65419 -51.56097 40059 ft 439 kts 241°
2026-04-30 00:53 -23.69132 -51.61353 40059 ft 441 kts 241°
2026-04-30 00:54 -23.72815 -51.66670 40058 ft 441 kts 241°
2026-04-30 00:54 -23.76615 -51.71934 40058 ft 442 kts 240°
2026-04-30 00:55 -23.80376 -51.77188 40065 ft 436 kts 240°
2026-04-30 00:55 -23.85892 -51.84956 40066 ft 436 kts 240°
2026-04-30 00:56 -23.89620 -51.90224 40066 ft 437 kts 240°
2026-04-30 00:56 -23.93328 -51.95465 40066 ft 437 kts 240°
2026-04-30 00:57 -23.97035 -52.00714 40052 ft 434 kts 241°
2026-04-30 00:57 -24.00545 -52.05686 40053 ft 434 kts 241°
2026-04-30 00:58 -24.04380 -52.11138 40053 ft 434 kts 242°
2026-04-30 00:58 -24.07984 -52.16428 40053 ft 434 kts 242°
2026-04-30 00:59 -24.11563 -52.21706 40053 ft 433 kts 242°
2026-04-30 00:59 -24.15152 -52.27006 40059 ft 433 kts 242°
2026-04-30 01:00 -24.18728 -52.32294 40058 ft 435 kts 242°
2026-04-30 01:00 -24.22304 -52.37596 40058 ft 434 kts 242°
2026-04-30 01:01 -24.25913 -52.42925 40059 ft 435 kts 242°
2026-04-30 01:01 -24.29496 -52.48228 40066 ft 435 kts 242°
2026-04-30 01:02 -24.33083 -52.53507 40088 ft 431 kts 242°
2026-04-30 01:02 -24.36658 -52.58766 40088 ft 432 kts 242°
2026-04-30 01:03 -24.40234 -52.64038 40088 ft 432 kts 242°
2026-04-30 01:03 -24.43761 -52.69250 40070 ft 410 kts 243°
2026-04-30 01:04 -24.45415 -52.71725 39995 ft 395 kts 243°
2026-04-30 01:04 -24.47020 -52.74103 39794 ft 385 kts 244°
2026-04-30 01:04 -24.48596 -52.76439 39321 ft 381 kts 244°
2026-04-30 01:04 -24.50178 -52.78792 38471 ft 387 kts 243°
2026-04-30 01:05 -24.51780 -52.81168 37740 ft 390 kts 243°
2026-04-30 01:05 -24.53379 -52.83574 37064 ft 390 kts 243°
2026-04-30 01:05 -24.54979 -52.85993 36302 ft 393 kts 243°
2026-04-30 01:05 -24.56603 -52.88415 35560 ft 395 kts 242°
2026-04-30 01:06 -24.58205 -52.90847 34797 ft 397 kts 243°
2026-04-30 01:06 -24.59838 -52.93304 34033 ft 399 kts 242°
2026-04-30 01:06 -24.61453 -52.95728 33466 ft 395 kts 242°
2026-04-30 01:06 -24.63048 -52.98178 32941 ft 390 kts 240°
2026-04-30 01:07 -24.64622 -53.00590 32466 ft 386 kts 242°
2026-04-30 01:07 -24.66188 -53.02942 31960 ft 381 kts 242°
2026-04-30 01:07 -24.67727 -53.05302 31231 ft 377 kts 242°
2026-04-30 01:07 -24.69142 -53.07673 30530 ft 368 kts 246°
2026-04-30 01:08 -24.70344 -53.10144 30130 ft 368 kts 249°
2026-04-30 01:08 -24.71484 -53.12670 29682 ft 376 kts 249°
2026-04-30 01:08 -24.72641 -53.15267 29154 ft 376 kts 249°
2026-04-30 01:08 -24.73591 -53.17397 28721 ft 378 kts 249°
2026-04-30 01:09 -24.74234 -53.18846 28429 ft 380 kts 248°
2026-04-30 01:09 -24.75539 -53.21771 27841 ft 382 kts 248°
2026-04-30 01:09 -24.76746 -53.24393 27314 ft 385 kts 246°
2026-04-30 01:09 -24.77969 -53.27031 26787 ft 388 kts 246°
2026-04-30 01:10 -24.79176 -53.29643 26263 ft 381 kts 245°
2026-04-30 01:10 -24.80078 -53.31591 25862 ft 372 kts 245°
2026-04-30 01:10 -24.80118 -53.31677 25844 ft 371 kts 245°
2026-04-30 01:10 -24.81281 -53.34195 25314 ft 364 kts 245°
2026-04-30 01:11 -24.82434 -53.36696 24771 ft 375 kts 247°
2026-04-30 01:11 -24.83535 -53.39081 24304 ft 400 kts 247°
2026-04-30 01:11 -24.84920 -53.42081 23733 ft 402 kts 247°
2026-04-30 01:11 -24.85917 -53.44248 23313 ft 395 kts 247°
2026-04-30 01:12 -24.86761 -53.46085 22952 ft 390 kts 247°
2026-04-30 01:12 -24.87969 -53.48714 22427 ft 382 kts 248°
2026-04-30 01:12 -24.89166 -53.51311 21897 ft 375 kts 247°
2026-04-30 01:13 -24.90350 -53.53812 21375 ft 369 kts 246°
2026-04-30 01:13 -24.91534 -53.56285 20845 ft 363 kts 246°
2026-04-30 01:13 -24.92706 -53.58749 20315 ft 359 kts 247°
2026-04-30 01:13 -24.93825 -53.61163 19793 ft 355 kts 248°
2026-04-30 01:14 -24.94928 -53.63578 19266 ft 351 kts 248°
2026-04-30 01:14 -24.96026 -53.65942 18743 ft 346 kts 249°
2026-04-30 01:14 -24.97094 -53.68282 18219 ft 341 kts 249°
2026-04-30 01:14 -24.98163 -53.70600 17692 ft 337 kts 249°
2026-04-30 01:15 -24.99108 -53.72670 17215 ft 332 kts 249°
2026-04-30 01:15 -25.00227 -53.75137 16641 ft 327 kts 249°
2026-04-30 01:15 -25.01235 -53.77364 16113 ft 322 kts 249°
2026-04-30 01:15 -25.02222 -53.79543 15589 ft 317 kts 249°
2026-04-30 01:16 -25.03108 -53.81499 15111 ft 312 kts 249°
2026-04-30 01:16 -25.04156 -53.83811 14538 ft 307 kts 249°
2026-04-30 01:16 -25.05110 -53.85892 14011 ft 301 kts 248°
2026-04-30 01:16 -25.06036 -53.87918 13488 ft 297 kts 248°
2026-04-30 01:17 -25.06965 -53.89945 12959 ft 293 kts 248°
2026-04-30 01:17 -25.07872 -53.91930 12435 ft 290 kts 248°
2026-04-30 01:17 -25.08778 -53.93909 11906 ft 287 kts 248°
2026-04-30 01:17 -25.09670 -53.95858 11381 ft 284 kts 248°
2026-04-30 01:18 -25.10551 -53.97782 10858 ft 282 kts 248°
2026-04-30 01:18 -25.11431 -53.99705 10332 ft 280 kts 247°
2026-04-30 01:18 -25.12302 -54.01619 9805 ft 278 kts 248°
2026-04-30 01:18 -25.13170 -54.03511 9280 ft 277 kts 246°
2026-04-30 01:19 -25.13953 -54.05213 8805 ft 275 kts 246°
2026-04-30 01:19 -25.14877 -54.07267 8231 ft 273 kts 246°
2026-04-30 01:19 -25.15738 -54.09135 7702 ft 272 kts 245°
2026-04-30 01:19 -25.16578 -54.10978 7180 ft 270 kts 245°
2026-04-30 01:20 -25.17423 -54.12837 6653 ft 270 kts 245°
2026-04-30 01:20 -25.18264 -54.14678 6131 ft 269 kts 245°
2026-04-30 01:20 -25.19026 -54.16356 5650 ft 269 kts 245°
2026-04-30 01:20 -25.19943 -54.18367 5078 ft 269 kts 245°
2026-04-30 01:21 -25.20777 -54.20198 4554 ft 269 kts 244°
2026-04-30 01:21 -25.21613 -54.22035 4165 ft 264 kts 244°
2026-04-30 01:21 -25.22352 -54.23660 4029 ft 255 kts 244°
2026-04-30 01:21 -25.23195 -54.25517 4008 ft 244 kts 244°
2026-04-30 01:22 -25.23946 -54.27169 3999 ft 235 kts 244°
2026-04-30 01:22 -25.24657 -54.28737 3997 ft 225 kts 244°
2026-04-30 01:22 -25.25344 -54.30251 3998 ft 217 kts 244°
2026-04-30 01:22 -25.26004 -54.31708 3998 ft 208 kts 244°
2026-04-30 01:23 -25.26623 -54.33074 3998 ft 199 kts 244°
2026-04-30 01:23 -25.27244 -54.34446 3997 ft 190 kts 244°
2026-04-30 01:23 -25.27814 -54.35702 3996 ft 181 kts 244°
2026-04-30 01:23 -25.28366 -54.36919 3993 ft 172 kts 245°
2026-04-30 01:24 -25.28842 -54.37973 3988 ft 164 kts 243°
2026-04-30 01:24 -25.29171 -54.38699 4008 ft 156 kts 243°
2026-04-30 01:24 -25.29799 -54.40088 4050 ft 147 kts 243°
2026-04-30 01:24 -25.30261 -54.41109 4068 ft 150 kts 243°
2026-04-30 01:25 -25.30729 -54.42143 4009 ft 149 kts 243°
2026-04-30 01:25 -25.31190 -54.43162 4003 ft 150 kts 243°
2026-04-30 01:25 -25.31653 -54.44185 4002 ft 150 kts 243°
2026-04-30 01:25 -25.32118 -54.45210 4000 ft 149 kts 243°
2026-04-30 01:26 -25.32538 -54.46141 3998 ft 150 kts 243°
2026-04-30 01:26 -25.33044 -54.47257 4003 ft 149 kts 243°
2026-04-30 01:26 -25.33508 -54.48282 4003 ft 150 kts 243°
2026-04-30 01:26 -25.33972 -54.49308 3999 ft 149 kts 243°
2026-04-30 01:27 -25.34438 -54.50333 4001 ft 149 kts 243°
2026-04-30 01:27 -25.34901 -54.51358 4000 ft 150 kts 243°
2026-04-30 01:27 -25.35367 -54.52379 4001 ft 150 kts 243°
2026-04-30 01:27 -25.35835 -54.53403 3998 ft 149 kts 243°
2026-04-30 01:28 -25.36299 -54.54424 4003 ft 151 kts 243°
2026-04-30 01:28 -25.36767 -54.55448 4001 ft 150 kts 243°
2026-04-30 01:28 -25.37234 -54.56472 4007 ft 150 kts 243°
2026-04-30 01:28 -25.37706 -54.57504 3996 ft 150 kts 243°
2026-04-30 01:29 -25.38171 -54.58524 3999 ft 146 kts 243°
2026-04-30 01:29 -25.38715 -54.59411 3872 ft 138 kts 229°
2026-04-30 01:29 -25.39492 -54.59993 3714 ft 134 kts 210°
2026-04-30 01:29 -25.40336 -54.60384 3564 ft 132 kts 204°
2026-04-30 01:30 -25.41183 -54.60737 3404 ft 130 kts 202°
2026-04-30 01:30 -25.42042 -54.61087 3259 ft 132 kts 202°
2026-04-30 01:30 -25.42904 -54.61439 3109 ft 132 kts 202°
2026-04-30 01:30 -25.43760 -54.61788 2959 ft 132 kts 201°
2026-04-30 01:31 -25.44621 -54.62141 2807 ft 132 kts 201°
2026-04-30 01:31 -25.45443 -54.62478 2666 ft 131 kts 201°
2026-04-30 01:31 -25.45729 -54.62595 2617 ft 130 kts 201°
2026-04-30 01:31 -25.46583 -54.62946 2465 ft 129 kts 201°
2026-04-30 01:32 -25.47425 -54.63216 2368 ft 129 kts 192°
2026-04-30 01:32 -25.48320 -54.63054 2388 ft 131 kts 161°
2026-04-30 01:32 -25.49010 -54.62436 2425 ft 129 kts 138°
2026-04-30 01:32 -25.49598 -54.61683 2391 ft 128 kts 133°
2026-04-30 01:33 -25.50161 -54.60923 2406 ft 129 kts 132°
2026-04-30 01:33 -25.50729 -54.60160 2397 ft 128 kts 132°
2026-04-30 01:33 -25.51298 -54.59401 2401 ft 128 kts 133°
2026-04-30 01:33 -25.51873 -54.58650 2401 ft 128 kts 133°
2026-04-30 01:34 -25.52448 -54.57902 2400 ft 128 kts 133°
2026-04-30 01:34 -25.53025 -54.57153 2401 ft 128 kts 133°
2026-04-30 01:34 -25.53602 -54.56410 2375 ft 129 kts 133°
2026-04-30 01:34 -25.54183 -54.55655 2218 ft 127 kts 133°
2026-04-30 01:35 -25.54771 -54.54933 2043 ft 126 kts 134°
2026-04-30 01:35 -25.55366 -54.54245 1878 ft 125 kts 136°
2026-04-30 01:35 -25.55959 -54.53526 1711 ft 125 kts 133°
2026-04-30 01:35 -25.56520 -54.52800 1545 ft 125 kts 131°
2026-04-30 01:36 -25.57070 -54.52064 1380 ft 124 kts 130°
2026-04-30 01:36 -25.57608 -54.51336 1219 ft 124 kts 130°
2026-04-30 01:36 -25.58160 -54.50588 1053 ft 124 kts 130°
2026-04-30 01:36 -25.58698 -54.49854 902 ft 122 kts 129°
2026-04-30 01:37 -25.59230 -54.49116 869 ft 122 kts 129°
2026-04-30 01:37 -25.59759 -54.48384 972 ft 125 kts 129°
2026-04-30 01:37 -25.60317 -54.47612 1046 ft 134 kts 129°
2026-04-30 01:37 -25.60903 -54.46803 1262 ft 136 kts 129°
2026-04-30 01:38 -25.61541 -54.45940 1139 ft 149 kts 131°
2026-04-30 01:38 -25.62354 -54.45306 902 ft 135 kts 157°
2026-04-30 01:38 -25.63225 -54.45464 1092 ft 136 kts 212°
2026-04-30 01:38 -25.63399 -54.46433 1587 ft 136 kts 281°
2026-04-30 01:39 -25.63188 -54.47252 2217 ft 136 kts 282°
2026-04-30 01:39 -25.62978 -54.48470 2990 ft 137 kts 281°
2026-04-30 01:39 -25.62707 -54.49476 3648 ft 139 kts 284°
2026-04-30 01:39 -25.62415 -54.50497 4025 ft 142 kts 285°
2026-04-30 01:40 -25.62106 -54.51545 4017 ft 142 kts 285°
2026-04-30 01:40 -25.61807 -54.52571 4001 ft 139 kts 285°
2026-04-30 01:40 -25.61510 -54.53591 4003 ft 140 kts 285°
2026-04-30 01:40 -25.61214 -54.54605 4002 ft 139 kts 285°
2026-04-30 01:41 -25.60912 -54.55629 3997 ft 139 kts 285°
2026-04-30 01:41 -25.60611 -54.56650 4002 ft 140 kts 285°
2026-04-30 01:41 -25.60314 -54.57672 4000 ft 140 kts 285°
2026-04-30 01:41 -25.60014 -54.58690 4001 ft 138 kts 285°
2026-04-30 01:42 -25.59719 -54.59709 4002 ft 140 kts 285°
2026-04-30 01:42 -25.59422 -54.60727 3999 ft 140 kts 285°
2026-04-30 01:42 -25.59119 -54.61757 3942 ft 140 kts 285°
2026-04-30 01:42 -25.58820 -54.62771 3805 ft 140 kts 286°
2026-04-30 01:43 -25.58331 -54.63716 3648 ft 144 kts 304°
2026-04-30 01:43 -25.57608 -54.64481 3528 ft 144 kts 314°
2026-04-30 01:43 -25.56859 -54.65221 3390 ft 144 kts 315°
2026-04-30 01:43 -25.56103 -54.65956 3251 ft 145 kts 315°
2026-04-30 01:44 -25.55354 -54.66688 3107 ft 141 kts 315°
2026-04-30 01:44 -25.54628 -54.67395 2950 ft 138 kts 315°
2026-04-30 01:44 -25.53916 -54.68085 2803 ft 136 kts 316°
2026-04-30 01:44 -25.53192 -54.68743 2662 ft 136 kts 318°
2026-04-30 01:45 -25.52450 -54.69404 2530 ft 138 kts 318°
2026-04-30 01:45 -25.51704 -54.70070 2396 ft 136 kts 318°
2026-04-30 01:45 -25.50932 -54.70672 2395 ft 139 kts 327°
2026-04-30 01:45 -25.49987 -54.70879 2364 ft 142 kts
2026-04-30 01:46 -25.49126 -54.70367 2430 ft 142 kts 40°
2026-04-30 01:46 -25.48467 -54.69547 2467 ft 144 kts 49°
2026-04-30 01:46 -25.47859 -54.68810 2407 ft 141 kts 48°
2026-04-30 01:46 -25.47134 -54.67925 2404 ft 142 kts 48°
2026-04-30 01:47 -25.46546 -54.67063 2382 ft 142 kts 60°
2026-04-30 01:47 -25.46361 -54.66016 2383 ft 139 kts 93°
2026-04-30 01:47 -25.46586 -54.65063 2460 ft 140 kts 110°
2026-04-30 01:47 -25.46887 -54.64060 2403 ft 138 kts 111°
2026-04-30 01:48 -25.47211 -54.63070 2402 ft 137 kts 114°
2026-04-30 01:48 -25.47680 -54.62156 2403 ft 136 kts 125°
2026-04-30 01:48 -25.48223 -54.61301 2400 ft 136 kts 128°
2026-04-30 01:48 -25.48802 -54.60492 2398 ft 135 kts 134°
2026-04-30 01:49 -25.49487 -54.59777 2404 ft 135 kts 140°
2026-04-30 01:49 -25.50239 -54.59168 2386 ft 133 kts 152°
2026-04-30 01:49 -25.51026 -54.58887 2420 ft 131 kts 167°
2026-04-30 01:49 -25.51961 -54.58467 2377 ft 132 kts 153°
2026-04-30 01:50 -25.52654 -54.57825 2404 ft 130 kts 139°
2026-04-30 01:50 -25.53263 -54.57085 2400 ft 130 kts 134°
2026-04-30 01:50 -25.53848 -54.56316 2344 ft 131 kts 133°
2026-04-30 01:50 -25.54234 -54.55802 2230 ft 130 kts 132°
2026-04-30 01:51 -25.55001 -54.54790 1999 ft 128 kts 132°
2026-04-30 01:51 -25.55572 -54.54039 1826 ft 127 kts 132°
2026-04-30 01:51 -25.56140 -54.53293 1653 ft 126 kts 131°
2026-04-30 01:51 -25.56706 -54.52548 1488 ft 126 kts 131°
2026-04-30 01:52 -25.57266 -54.51812 1322 ft 126 kts 131°
2026-04-30 01:52 -25.57830 -54.51072 1157 ft 126 kts 131°
2026-04-30 01:52 -25.58392 -54.50333 989 ft 125 kts 131°
2026-04-30 01:52 -25.58950 -54.49601 828 ft 125 kts 131°
2026-04-30 01:53 -25.59483 -54.48902 794 ft 105 kts 131°
2026-04-30 01:53 -25.59797 -54.48493 794 ft 32 kts 130°
2026-04-30 01:53 -25.59966 -54.48273 794 ft 38 kts 130°
2026-04-30 01:53 -25.60089 -54.48113 794 ft 16 kts 131°
2026-04-30 01:54 -25.60145 -54.48042 794 ft 11 kts 131°
2026-04-30 01:54 -25.60185 -54.47991 794 ft 8 kts 135°
2026-04-30 01:54 -25.60229 -54.47976 794 ft 6 kts 181°
2026-04-30 01:54 -25.60253 -54.47959 794 ft 4 kts 104°
2026-04-30 01:55 -25.60245 -54.47940 794 ft 3 kts 34°
2026-04-30 01:55 -25.60225 -54.47935 794 ft 3 kts
2026-04-30 01:55 -25.60206 -54.47951 794 ft 4 kts 307°
2026-04-30 01:55 -25.60185 -54.47979 794 ft 6 kts 309°
2026-04-30 01:56 -25.60157 -54.48017 794 ft 7 kts 310°
2026-04-30 01:56 -25.60134 -54.48047 794 ft 8 kts 310°
2026-04-30 01:56 -25.60091 -54.48104 794 ft 7 kts 310°
2026-04-30 01:56 -25.60056 -54.48151 794 ft 9 kts 310°
2026-04-30 01:57 -25.60014 -54.48205 794 ft 10 kts 310°
2026-04-30 01:57 -25.59966 -54.48268 794 ft 12 kts 310°
2026-04-30 01:57 -25.59913 -54.48337 794 ft 11 kts 310°
2026-04-30 01:57 -25.59858 -54.48409 794 ft 13 kts 310°
2026-04-30 01:58 -25.59827 -54.48450 794 ft 0 kts 310°
2026-04-30 01:58 -25.59822 -54.48456 794 ft 2 kts 310°
2026-04-30 01:58 -25.59816 -54.48465 794 ft 0 kts 310°
2026-04-30 01:58 -25.59810 -54.48473 794 ft 2 kts 308°
2026-04-30 01:59 -25.59821 -54.48507 794 ft 3 kts 225°
2026-04-30 01:59 -25.59842 -54.48531 794 ft 5 kts 225°
2026-04-30 01:59 -25.59865 -54.48566 794 ft 5 kts 258°
2026-04-30 02:00 -25.59846 -54.48600 794 ft 6 kts 309°
2026-04-30 02:00 -25.59816 -54.48642 794 ft 8 kts 309°
2026-04-30 02:00 -25.59791 -54.48676 794 ft 9 kts 309°
2026-04-30 02:00 -25.59735 -54.48753 794 ft 9 kts 309°
2026-04-30 02:01 -25.59720 -54.48800 794 ft 6 kts 244°
2026-04-30 02:01 -25.59752 -54.48827 794 ft 6 kts 220°
2026-04-30 02:01 -25.59759 -54.48834 794 ft 0 kts 220°